Preview of NWS' New Version of Forecast
This preview is not operational and should not be used for support decisions.

Regional Weather Roundup (RWR)

Issued by Key West, FL (KEY)

                            
619 
ASUS42 KKEY 212310
RWRKEY

FLORIDA REGIONAL WEATHER ROUNDUP FOR THE FLORIDA KEYS
NATIONAL WEATHER SERVICE KEY WEST FLORIDA
700 PM EDT THU JUN 21 2018

...SOUTH FLORIDA AND THE KEYS...
  
CITY           SKY/WX    TMP DP  RH WIND       PRES   REMARKS
FORT MYERS     FAIR      86  73  65 W9        29.93R HX  93           
SW REGIONAL AP FAIR      85  74  69 W6        29.94R HX  92           
NAPLES         FAIR      87  76  69 W8        29.93R HX  97           
MIAMI          PTSUNNY   86  76  71 SW6       29.93R THUNDER HX  96   
WEST KENDALL   FAIR      87  75  67 W8        29.92S HX  96           
HOMESTEAD      FAIR      86  75  69 SW8       29.92S HX  96           
MARATHON       FAIR      89  71  55 SW8       29.93F HX  95           
KEY WEST INTL  FAIR      85  76  74 SW8       29.94S HX  94           

...INTERNATIONAL WEATHER...
  
CITY           SKY/WX    TMP DP  RH WIND       PRES   REMARKS
NASSAU BAHAMAS MOSUNNY   84  73  70 W6        29.96R HX  91           
CANCUN MEXICO  PTSUNNY   84  77  79 SE13      29.91S HX  94           
COZUMEL MEXICO MOSUNNY   84  77  79 SE14      29.88F HX  94           

ADJACENT COASTAL WATERS...
  
STATION/POSITION TIME  SKY/WX   TEMP    WIND        PRES    WAVE
                                AIR SEA DIR/SP/G            HT/PER
                 (UTC)          (F)     (DEG/KT/KT) (MB)    (FT/S)
PULASKI SHOAL LI 2300            85     250/  3/  3 1014.3F
SAND KEY         2250            84                 1014.0F
SOMBRERO KEY     2250            85     210/  8/ 10 1013.1F
LONG KEY         2300            85 90  310/  7/  9 1013.6R
MOLASSES REEF    2300            84 83  240/ 13/ 14 1013.8
FOWEY ROCKS      2300            87 85  240/ 11/ 12 1014.2R
Buoy 42097       2230               86                N/A     1

$$